K2BIG Weather Reports


time (UTC)temp
C
wind
direction
speed
KPH
gust
KPH
rain 1hr
cm
rain 24hr
cm
rain mn
cm
humidity
%
barometer
mb
20260502231016 12 270 3.2 12.9 0.00 0.25 0.25 43 1010.7
20260502230516 12 293 3.2 8.0 0.00 0.25 0.25 43 1010.6
20260502230016 12 270 3.2 9.7 0.00 0.25 0.25 42 1010.7
20260502225515 13 270 6.4 16.1 0.00 0.25 0.25 41 1010.6
20260502225016 13 293 9.7 16.1 0.00 0.25 0.25 41 1010.6
20260502224515 13 293 4.8 14.5 0.00 0.25 0.25 41 1010.6
20260502224015 13 293 6.4 11.3 0.00 0.25 0.25 40 1010.5
20260502223515 13 270 8.0 19.3 0.00 0.25 0.25 40 1010.5
20260502223015 13 293 6.4 16.1 0.00 0.25 0.25 41 1010.5
20260502222515 13 270 6.4 16.1 0.00 0.25 0.25 42 1010.4
20260502222015 13 315 9.7 19.3 0.00 0.25 0.25 40 1010.4
20260502221515 13 315 6.4 12.9 0.00 0.25 0.25 42 1010.3
20260502221015 13 315 1.6 6.4 0.00 0.25 0.25 42 1010.2
20260502220515 13 315 3.2 6.4 0.00 0.25 0.25 46 1010.2
20260502220015 13 315 3.2 6.4 0.00 0.25 0.25 42 1010.3
20260502215515 13 315 4.8 16.1 0.00 0.25 0.25 43 1010.3
20260502215015 13 315 4.8 12.9 0.00 0.25 0.25 42 1010.2
20260502214516 13 315 6.4 11.3 0.00 0.25 0.25 41 1010.2
20260502214015 14 293 6.4 16.1 0.00 0.25 0.25 40 1010.2
20260502213515 14 338 4.8 8.0 0.00 0.25 0.25 40 1010.1
20260502213015 14 315 4.8 12.9 0.00 0.25 0.25 39 1010.0
20260502212515 15 270 1.6 6.4 0.00 0.25 0.25 39 1010.0
20260502212015 15 270 3.2 8.0 0.00 0.25 0.25 38 1009.9
20260502211515 15 293 4.8 11.3 0.00 0.25 0.25 37 1009.9
20260502211015 15 315 4.8 14.5 0.00 0.25 0.25 38 1009.8
20260502210515 15 270 6.4 17.7 0.00 0.25 0.25 38 1009.9
20260502210015 15 270 3.2 12.9 0.00 0.25 0.25 40 1009.9
20260502205515 15 248 4.8 11.3 0.00 0.25 0.25 40 1009.8
20260502205015 16 270 4.8 11.3 0.00 0.25 0.25 42 1009.8
20260502204515 16 270 4.8 16.1 0.00 0.25 0.25 38 1009.8
20260502204015 16 270 6.4 16.1 0.00 0.25 0.25 37 1009.8
20260502203515 17 293 6.4 16.1 0.00 0.25 0.25 34 1009.8
20260502203015 17 315 4.8 16.1 0.00 0.25 0.25 37 1009.9
20260502202515 16 248 6.4 12.9 0.00 0.25 0.25 38 1009.9
20260502202015 16 248 6.4 14.5 0.00 0.25 0.25 43 1009.9
20260502201515 16 270 4.8 12.9 0.00 0.25 0.25 40 1010.0
20260502201015 16 338 3.2 6.4 0.00 0.25 0.25 39 1010.1
20260502200515 16 338 4.8 16.1 0.00 0.25 0.25 39 1010.0
20260502200015 16 270 4.8 12.9 0.00 0.25 0.25 41 1010.1
20260502195515 15 248 6.4 14.5 0.00 0.25 0.25 41 1010.1
20260502195015 16 293 3.2 11.3 0.00 0.25 0.25 42 1010.2
20260502194515 16 293 3.2 8.0 0.00 0.25 0.25 40 1010.3
20260502194015 16 315 4.8 11.3 0.00 0.25 0.25 39 1010.3
20260502193515 16 270 4.8 12.9 0.00 0.25 0.25 40 1010.3
20260502193015 16 293 3.2 8.0 0.00 0.25 0.25 40 1010.4
20260502192515 16 315 3.2 4.8 0.00 0.25 0.25 41 1010.5
20260502192015 16 315 3.2 9.7 0.00 0.25 0.25 38 1010.5
20260502191515 16 270 6.4 12.9 0.00 0.25 0.25 38 1010.6
20260502191015 16 248 4.8 12.9 0.00 0.25 0.25 44 1010.6
20260502190515 15 248 8.0 16.1 0.00 0.25 0.25 41 1010.6
20260502190015 15 248 3.2 9.7 0.00 0.25 0.25 40 1010.7
20260502185515 16 225 4.8 16.1 0.00 0.25 0.25 37 1010.8
20260502185015 16 225 4.8 9.7 0.00 0.25 0.25 40 1010.8
20260502184515 16 270 3.2 11.3 0.00 0.25 0.25 36 1010.8
20260502184015 16 270 3.2 11.3 0.00 0.25 0.25 39 1010.9
20260502183515 16 248 4.8 11.3 0.00 0.25 0.25 41 1010.9
20260502183015 16 225 6.4 11.3 0.00 0.25 0.25 46 1011.0
20260502182515 16 293 3.2 8.0 0.00 0.25 0.25 45 1011.0
20260502182015 16 315 3.2 6.4 0.00 0.25 0.25 40 1011.0
20260502181515 17 315 4.8 11.3 0.00 0.25 0.25 42 1011.0
20260502181015 17 293 4.8 11.3 0.00 0.25 0.25 44 1010.8
20260502180515 16 315 4.8 16.1 0.00 0.25 0.25 40 1010.8
20260502170517 16 293 1.6 4.8 0.00 0.25 0.25 53 1011.5
20260502164017 14 225 4.8 11.3 0.00 0.25 0.25 57 1011.5
20260502163517 13 315 4.8 12.9 0.00 0.25 0.25 49 1011.6
20260502163017 13 293 4.8 12.9 0.00 0.25 0.25 56 1011.7
20260502162517 13 23 1.6 4.8 0.00 0.25 0.25 57 1011.8
20260502162017 14 23 1.6 4.8 0.00 0.25 0.25 64 1011.8
20260502161517 14 23 3.2 12.9 0.00 0.25 0.25 60 1011.9
20260502161017 15 293 8.0 17.7 0.00 0.25 0.25 56 1011.8
20260502160517 15 293 4.8 11.3 0.00 0.25 0.25 60 1011.9
20260502152017 13 315 4.8 12.9 0.00 0.25 0.25 68 1012.1
20260502151516 13 293 4.8 11.3 0.00 0.25 0.25 66 1012.1
20260502151017 12 270 4.8 12.9 0.00 0.25 0.25 70 1012.0
20260502150516 12 270 4.8 12.9 0.00 0.25 0.25 70 1012.2
20260502130516 8 270 3.2 6.4 0.00 0.25 0.25 90 1012.4
20260502123516 8 293 4.8 12.9 0.00 0.25 0.25 95 1012.0
20260502123016 8 293 4.8 12.9 0.00 0.25 0.25 95 1012.0
20260502122516 8 248 4.8 9.7 0.00 0.25 0.25 96 1012.0
20260502122016 8 248 4.8 11.3 0.00 0.25 0.25 96 1012.0
20260502121516 8 248 3.2 6.4 0.00 0.25 0.25 97 1011.9
20260502121016 8 225 1.6 4.8 0.00 0.25 0.25 97 1011.9
20260502120516 8 225 1.6 3.2 0.00 0.25 0.25 97 1011.9
20260502115516 8 0.0 3.2 0.00 0.25 0.25 97 1012.0
20260502115016 8 0.0 4.8 0.00 0.25 0.25 96 1012.1
20260502114516 8 225 1.6 3.2 0.00 0.25 0.25 96 1012.1
20260502114016 8 225 1.6 4.8 0.00 0.25 0.25 97 1012.2
20260502113516 8 225 1.6 4.8 0.00 0.25 0.25 97 1012.0
20260502113016 8 0.0 4.8 0.00 0.25 0.25 97 1012.0
20260502112516 8 248 1.6 6.4 0.00 0.25 0.25 97 1012.1
20260502112016 8 0.0 3.2 0.00 0.25 0.25 97 1012.0
20260502111516 7 0.0 0.0 0.00 0.25 0.25 96 1011.9
20260502111017 7 0.0 0.0 0.00 0.25 0.25 96 1012.0
20260502110516 7 0.0 0.0 0.00 0.25 0.25 96 1011.8
20260502110016 7 0.0 0.0 0.00 0.25 0.25 96 1011.7
20260502105516 7 0.0 0.0 0.00 0.25 0.25 96 1011.7
20260502105016 7 0.0 0.0 0.00 0.25 0.25 96 1011.6
20260502104516 7 0.0 0.0 0.00 0.25 0.25 96 1011.4
20260502104016 7 0.0 0.0 0.00 0.25 0.25 96 1011.5
20260502103516 7 0.0 0.0 0.00 0.25 0.25 96 1011.4
20260502103016 7 0.0 0.0 0.00 0.25 0.25 95 1011.3
20260502102516 7 0.0 0.0 0.00 0.25 0.25 95 1011.4
20260502102016 7 0.0 0.0 0.00 0.25 0.25 95 1011.4
20260502101516 7 0.0 0.0 0.00 0.25 0.25 95 1011.5
20260502101016 7 0.0 0.0 0.00 0.25 0.25 95 1011.5
20260502100516 7 0.0 0.0 0.00 0.25 0.25 95 1011.4
20260502091516 7 0.0 0.0 0.13 0.25 0.25 95 1011.2
20260502091016 7 0.0 0.0 0.15 0.25 0.25 95 1011.0
20260502090516 8 0.0 0.0 0.18 0.25 0.25 95 1011.0
20260502071515 8 0.0 0.0 0.03 0.05 0.05 93 1011.7
20260502071016 8 0.0 0.0 0.05 0.05 0.05 93 1011.7
20260502070516 8 0.0 1.6 0.05 0.05 0.05 93 1011.8
20260502070017 8 0.0 0.0 0.05 0.05 0.05 93 1011.9
20260502065515 8 0.0 0.0 0.05 0.05 0.05 92 1011.9
20260502065016 8 0.0 0.0 0.05 0.05 0.05 92 1011.9
20260502064516 8 0.0 0.0 0.05 0.05 0.05 92 1011.9
20260502064016 8 0.0 0.0 0.05 0.05 0.05 92 1012.0
20260502063516 8 0.0 0.0 0.05 0.05 0.05 91 1012.1
20260502063016 8 0.0 4.8 0.05 0.05 0.05 91 1012.2
20260502062516 8 0.0 3.2 0.05 0.05 0.05 91 1012.1
20260502062015 8 0.0 0.0 0.05 0.05 0.05 91 1012.0
20260502061515 8 248 1.6 6.4 0.03 0.03 0.03 90 1012.1
20260502061015 8 225 1.6 6.4 0.00 0.00 0.00 91 1012.4
20260502060516 9 203 1.6 4.8 0.00 0.00 0.00 91 1012.4
20260502060015 9 180 1.6 6.4 0.00 0.00 0.00 91 1012.3
20260502055516 9 180 1.6 4.8 0.00 0.00 0.00 91 1012.2
20260502055015 9 0.0 0.0 0.00 0.00 0.00 90 1011.9
20260502054515 9 0.0 0.0 0.00 0.00 0.00 90 1011.9
20260502054015 9 0.0 0.0 0.00 0.00 0.00 89 1011.8
20260502053515 9 0.0 0.0 0.00 0.00 0.00 89 1011.8
20260502053015 9 0.0 0.0 0.00 0.00 0.00 87 1011.8
20260502052516 9 0.0 0.0 0.00 0.00 0.00 86 1012.0
20260502052015 10 0.0 0.0 0.00 0.00 0.00 85 1012.0
20260502051515 10 180 1.6 4.8 0.00 0.00 0.00 85 1012.1
20260502051016 10 180 3.2 8.0 0.00 0.00 0.00 85 1012.2
20260502050516 10 0.0 3.2 0.00 0.00 0.00 86 1012.0
20260502050015 10 0.0 3.2 0.00 0.00 0.00 86 1011.8
20260502045515 10 0.0 0.0 0.00 0.00 0.00 86 1011.9
20260502045015 10 0.0 0.0 0.00 0.00 0.00 85 1011.8
20260502044515 10 0.0 1.6 0.00 0.00 0.00 84 1011.6
20260502044015 10 0.0 0.0 0.00 0.00 0.00 84 1011.6
20260502043515 10 203 1.6 3.2 0.00 0.00 0.00 84 1011.7
20260502043015 10 0.0 0.0 0.00 0.00 0.00 83 1011.4
20260502042515 10 203 1.6 3.2 0.00 0.00 0.00 83 1011.3
20260502042015 10 0.0 3.2 0.00 0.00 0.00 84 1011.6
20260502041515 10 0.0 0.0 0.00 0.00 0.00 84 1011.8
20260502041015 10 0.0 0.0 0.00 0.00 0.00 83 1011.5
20260502040515 10 0.0 0.0 0.00 0.00 0.00 83 1011.7
20260502040015 10 0.0 0.0 0.00 0.00 0.00 83 1011.6
20260502035516 10 0.0 1.6 0.00 0.00 0.00 83 1011.6
20260502035016 10 0.0 0.0 0.00 0.00 0.00 83 1011.7
20260502034516 10 0.0 0.0 0.00 0.00 0.00 83 1011.7
20260502034016 10 0.0 1.6 0.00 0.00 0.00 83 1011.6
20260502033516 10 0.0 1.6 0.00 0.00 0.00 82 1011.6
20260502033016 10 0.0 0.0 0.00 0.00 0.00 83 1011.6
20260502032516 10 0.0 0.0 0.00 0.00 0.00 82 1011.7
20260502032016 10 0.0 1.6 0.00 0.00 0.00 82 1011.7
20260502031516 10 0.0 0.0 0.00 0.00 0.00 82 1011.6
20260502031016 10 0.0 0.0 0.00 0.00 0.00 82 1011.5
20260502030516 10 0.0 0.0 0.00 0.00 0.00 82 1011.6
20260502030016 10 0.0 0.0 0.00 0.00 0.00 82 1011.6
20260502025516 10 0.0 0.0 0.00 0.00 0.00 80 1011.8
20260502025016 10 0.0 0.0 0.00 0.00 0.00 80 1011.8
20260502024516 10 0.0 0.0 0.00 0.00 0.00 78 1011.8
20260502024016 10 0.0 0.0 0.00 0.00 0.00 79 1011.8
20260502023516 10 0.0 0.0 0.00 0.00 0.00 78 1011.7
20260502023016 10 0.0 0.0 0.00 0.00 0.00 78 1011.7
20260502022516 10 0.0 0.0 0.00 0.00 0.00 77 1011.6
20260502022016 10 0.0 0.0 0.00 0.00 0.00 76 1011.5
20260502021516 10 0.0 0.0 0.00 0.00 0.00 77 1011.5
20260502021016 10 0.0 0.0 0.00 0.00 0.00 74 1011.6
20260502020516 10 0.0 0.0 0.00 0.00 0.00 74 1011.6
20260502020016 10 0.0 0.0 0.00 0.00 0.00 75 1011.5
20260502015516 10 0.0 0.0 0.00 0.00 0.00 74 1011.4
20260502015016 10 0.0 0.0 0.00 0.00 0.00 74 1011.4
20260502014516 10 0.0 0.0 0.00 0.00 0.00 76 1011.4
20260502014016 10 0.0 0.0 0.00 0.00 0.00 76 1011.3
20260502013516 10 0.0 0.0 0.00 0.00 0.00 75 1011.2
20260502013016 11 0.0 0.0 0.00 0.00 0.00 73 1011.3
20260502012516 11 0.0 0.0 0.00 0.00 0.00 70 1011.3
20260502012016 11 0.0 0.0 0.00 0.00 0.00 70 1011.4
20260502011516 11 0.0 0.0 0.00 0.00 0.00 71 1011.4
20260502011016 11 0.0 0.0 0.00 0.00 0.00 70 1011.3
20260502010516 11 0.0 0.0 0.00 0.00 0.00 69 1011.3
20260502010016 12 0.0 0.0 0.00 0.00 0.00 66 1011.2
20260502005516 12 0.0 0.0 0.00 0.00 0.00 64 1011.3
20260502005016 12 0.0 0.0 0.00 0.00 0.00 63 1011.4
20260502004516 12 0.0 0.0 0.00 0.00 0.00 63 1011.4
20260502004016 13 0.0 0.0 0.00 0.00 0.00 63 1011.4
20260502003516 13 0.0 0.0 0.00 0.00 0.00 61 1011.2
20260502003016 13 0.0 0.0 0.00 0.00 0.00 59 1011.2
20260502002516 13 0.0 1.6 0.00 0.00 0.00 59 1011.1
20260502002016 13 203 1.6 6.4 0.00 0.00 0.00 58 1011.0
20260502001516 13 203 1.6 9.7 0.00 0.00 0.00 57 1011.0
20260502001016 13 203 1.6 3.2 0.00 0.00 0.00 58 1010.9
20260502000516 13 180 3.2 6.4 0.00 0.00 0.00 56 1010.8
20260502000016 13 203 4.8 11.3 0.00 0.00 0.00 56 1010.8
20260501235516 14 225 3.2 6.4 0.00 0.00 0.00 56 1010.8
20260501235016 14 225 3.2 6.4 0.00 0.00 0.00 56 1010.9
20260501234516 14 248 3.2 8.0 0.00 0.00 0.00 55 1010.8
20260501234016 14 248 4.8 14.5 0.00 0.00 0.00 54 1010.7
20260501233516 14 203 3.2 9.7 0.00 0.00 0.00 53 1010.7
20260501233016 15 203 4.8 11.3 0.00 0.00 0.00 53 1010.6
20260501232516 15 248 3.2 8.0 0.00 0.00 0.00 53 1010.6
20260501232016 15 225 3.2 6.4 0.00 0.00 0.00 53 1010.5
20260501231516 15 225 3.2 11.3 0.00 0.00 0.00 52 1010.4